sat.trackr.live / text

‹ back to catalog

STARLINK-3682

NORAD 52140 · 2022-029BE

PAYLOAD ACTIVE UNKNOWN

§ Identity

Operator
Country
US
Launch date
2022-03-19
Launch site
AFETR
Launch vehicle
Mass (kg)
RCS (m²)

Purposes: comms

External: N2YO · Heavens-Above · Gunter

§ Orbital elements

Epoch: 2026-09-20T00:02:26.149056Z

Period
93.85 min
Inclination
53.1603°
Eccentricity
0.0001058
Mean motion
15.34402694 rev/d
Perigee alt
462.0 km
Apogee alt
463.4 km
Semi-major
6,840.8 km
B*
5.4385e-5
RAAN
269.8936°
Arg perigee
75.9785°
Mean anomaly
284.1336°
Rev number
25,036

§ Raw data

STARLINK-36821 52140U 22029BE  26263.00169154  .00001462  00000+0  54385-4 0  99932 52140  53.1603 269.8936 0001058  75.9785 284.1336 15.34402694250361

JSON: /api/v1/satellites/52140 · /tle

For live sub-satellite position, see the globe view (requires WebGL).

§ Visibility from observer

Set your observer location to see the next 7 days of passes ≥ 10°. The values pass through the URL so the page stays shareable.

No JS? Fill the form by hand. The geolocation button needs JavaScript.